Hourly Data Report for August 30, 2004

TORONTO CITY
ONTARIO

43°40'00.000" N
79°24'00.000" W
112.50 m
6158355
71508
XTO

Download Data

Hourly Data (August 2004)
Hourly Data Report for August 30, 2004
TIME
LST
Temp Definition
°C
Dew Point Definition
°C
Rel Hum Definition
%
Precip. Amount Definition
mm

Wind Dir Definition
10's deg

Wind Spd Definition
km/h
Visibility Definition
km
Stn Press Definition
kPa
Hmdx Definition


Wind Chill Definition


Weather Definition


00:00 17.0 15.3 90   LegendMM LegendMM LegendMM 100.16     LegendNANA
01:00 16.9 15.4 91   LegendMM LegendMM LegendMM 100.18     LegendNANA
02:00 17.1 15.5 90   LegendMM LegendMM LegendMM 100.16     LegendNANA
03:00 17.3 15.4 89   LegendMM LegendMM LegendMM 100.14     LegendNANA
04:00 17.4 15.4 88   LegendMM LegendMM LegendMM 100.17     LegendNANA
05:00 17.7 15.2 85   LegendMM LegendMM LegendMM 100.20     LegendNANA
06:00 17.6 15.3 86   LegendMM LegendMM LegendMM 100.24     LegendNANA
07:00 17.9 15.3 85   LegendMM LegendMM LegendMM 100.28     LegendNANA
08:00 18.3 15.4 83   LegendMM LegendMM LegendMM 100.29     LegendNANA
09:00 18.9 15.6 81   LegendMM LegendMM LegendMM 100.30     LegendNANA
10:00 19.6 15.3 76   LegendMM LegendMM LegendMM 100.31     LegendNANA
11:00 20.5 16.1 76   LegendMM LegendMM LegendMM 100.32 25   LegendNANA
12:00 21.0 15.5 71   LegendMM LegendMM LegendMM 100.34 25   LegendNANA
13:00 21.3 14.6 66   LegendMM LegendMM LegendMM 100.33 25   LegendNANA
14:00 21.4 14.9 66   LegendMM LegendMM LegendMM 100.27 25   LegendNANA
15:00 21.3 14.8 66   LegendMM LegendMM LegendMM 100.25 25   LegendNANA
16:00 22.0 15.4 66   LegendMM LegendMM LegendMM 100.26 26   LegendNANA
17:00 21.7 15.9 70   LegendMM LegendMM LegendMM 100.28 26   LegendNANA
18:00 20.8 15.2 70   LegendMM LegendMM LegendMM 100.28 25   LegendNANA
19:00 19.6 16.1 80   LegendMM LegendMM LegendMM 100.32     LegendNANA
20:00 18.5 15.8 84   LegendMM LegendMM LegendMM 100.36     LegendNANA
21:00 18.3 13.9 76   LegendMM LegendMM LegendMM 100.38     LegendNANA
22:00 17.4 13.0 75   LegendMM LegendMM LegendMM 100.40     LegendNANA
23:00 17.1 13.0 77   LegendMM LegendMM LegendMM 100.42     LegendNANA

Notes on Data Quality.

Legend

  • E = Estimated
  • M = Missing
  • NA = Not Available*
  • [empty] = Indicates an unobserved value
Date modified: